Weather History for KNSI - November, 2011

Change the Weather History Date:

Saturday, November 26, 2011

  Actual Average Record
Temperature  
Mean Temperature 63 °F -  
Max Temperature 72 °F - - ()
Min Temperature 54 °F - - ()
Degree Days  
Heating Degree Days 2    
Growing Degree Days 13 (Base 50)    
Moisture  
Dew Point 40 °F    
Average Humidity 47    
Maximum Humidity 75    
Minimum Humidity 23    
Precipitation  
Precipitation 0.00 in - - ()
Sea Level Pressure  
Sea Level Pressure 30.23 in    
Wind  
Wind Speed 2 mph (NNW)    
Max Wind Speed 5 mph    
Max Gust Speed -    
Visibility 9 miles    
Events      
T = Trace of Precipitation, MM = Missing Value Source: NWS Daily Summary

Daily Weather History Graph

Daily Weather History Graph

Search for Another Location

Airport or City:

Trip Planner

Search our weather history database for the weather conditions in past years. The results will help you decide how hot, cold, wet, or windy it might be!

Date:

Astronomy

Nov. 26, 2011 Rise Set
Actual Time 6:38 AM PST 4:51 PM PST
Civil Twilight 6:11 AM PST 5:18 PM PST
Nautical Twilight 5:41 AM PST 5:48 PM PST
Astronomical Twilight 5:11 AM PST 6:18 PM PST
Moon 8:11 AM PST (11/26) 6:30 PM PST (11/26)
Length of Visible Light 11h 06m
Length of Day
10h 12m
Waxing Crescent, 4% of the Moon is Illuminated
Nov 26
Waxing Crescent
Dec 2
First Quarter
Dec 10
Full
Dec 17
Last Quarter
Dec 24
New

Hourly Weather History & Observations

Time (PST) Temp. Dew Point Humidity Pressure Visibility Wind Dir Wind Speed Gust Speed Precip Events Conditions
12:53 AM 54.0 °F 46.0 °F 75% 30.22 in 10.0 mi North - - N/A   Clear
1:53 AM 55.9 °F 45.0 °F 67% 30.22 in 10.0 mi North - - N/A   Clear
2:53 AM 57.9 °F 43.0 °F 58% 30.21 in 10.0 mi North - - N/A   Clear
3:53 AM 60.1 °F 43.0 °F 53% 30.21 in 10.0 mi North - - N/A   Clear
4:53 AM 55.0 °F 45.0 °F 69% 30.22 in 10.0 mi North - - N/A   Clear
5:53 AM 54.0 °F 44.1 °F 69% 30.22 in 10.0 mi North - - N/A   Clear
6:53 AM 55.0 °F 44.1 °F 67% 30.25 in 10.0 mi North - - N/A   Clear
7:53 AM 60.1 °F 48.9 °F 67% 30.26 in 10.0 mi North - - N/A   Clear
8:53 AM 62.1 °F 51.1 °F 67% 30.27 in 7.0 mi Calm Calm - N/A   Clear
9:53 AM 66.9 °F 50.0 °F 54% 30.28 in 10.0 mi North - - N/A   Clear
10:53 AM 66.0 °F 54.0 °F 65% 30.27 in 7.0 mi Calm Calm - N/A   Clear
11:53 AM 69.1 °F 46.0 °F 44% 30.24 in 7.0 mi East 3.5 mph - N/A   Clear
12:53 PM 70.0 °F 41.0 °F 35% 30.23 in 7.0 mi East 3.5 mph - N/A   Clear
1:53 PM 72.0 °F 36.0 °F 27% 30.21 in 7.0 mi North 4.6 mph - N/A   Clear
2:53 PM 72.0 °F 32.0 °F 23% 30.21 in 7.0 mi Calm Calm - N/A   Clear
3:53 PM 71.1 °F 39.0 °F 31% 30.21 in 7.0 mi NW 3.5 mph - N/A   Partly Cloudy
4:53 PM 64.0 °F 30.9 °F 29% 30.21 in 7.0 mi WNW 4.6 mph - N/A   Clear
5:53 PM 62.1 °F 30.9 °F 31% 30.22 in 7.0 mi West 4.6 mph - N/A   Clear
6:53 PM 61.0 °F 30.9 °F 32% 30.22 in 10.0 mi North - - N/A   Clear
7:53 PM 59.0 °F 32.0 °F 36% 30.23 in 10.0 mi North - - N/A   Clear
8:53 PM 60.1 °F 32.0 °F 35% 30.24 in 10.0 mi North - - N/A   Clear
9:53 PM 61.0 °F 33.1 °F 35% 30.24 in 10.0 mi North - - N/A   Clear
10:53 PM 64.0 °F 35.1 °F 34% 30.23 in 10.0 mi North - - N/A   Clear
11:53 PM 64.9 °F 28.0 °F 25% 30.23 in 10.0 mi North - - N/A   Clear